View Data : List Evapotranspiration (ETo ) Reports


 
Search Evapotranspiration Reports
Station Fields:
Location:
Date Range:
Start Date:   End Date:
Searched: Report date on 8/16/2017.
Showing 1 - 50 of 117 Records. <Back  Page   Next>
DateTimeStation NumberStation NameGaugeReadingRefill LevelEvap AmtView
8/16/2017  12:00 AM  MN-AA-5  East Bethel 3.1 NE 9.69  0.07   
8/16/2017  5:00 AM  NY-CQ-22  Fredonia 0.8 WNW 3.17  0.16   
8/16/2017  5:03 AM  WI-MC-4  Two Rivers 1.4 N 4.20  0.07   
8/16/2017  5:30 AM  AL-MD-25  Huntsville 4.4 ENE 1.44  0.09   
8/16/2017  5:30 AM  IN-TN-1  Atlanta 4.4 W 3.55  0.15   
8/16/2017  5:30 AM  TX-KN-4  Boerne 5.1 NNW 2.95  0.25   
8/16/2017  5:57 AM  MO-CP-7  Boonville 0.5 ESE 4.84  0.12   
8/16/2017  6:00 AM  CO-LR-623  Fort Collins 6.1 SW 5.41  0.14   
8/16/2017  6:00 AM  IN-PT-12  Valparaiso 4.3 SW 1.92  0.08   
8/16/2017  6:00 AM  MD-MG-54  Germantown 4.6 NNE 1.37  0.02   
8/16/2017  6:00 AM  NH-CH-21  Keene 2.0 SE 8.12  0.09   
8/16/2017  6:00 AM  NH-CS-7  Lancaster 0.5 N 10.50  0.05   
8/16/2017  6:00 AM  PA-MT-16  North Wales 1.3 WSW 2.19  0.00   
8/16/2017  6:00 AM  TN-MA-3  Jasper 1.7 N 9.19  0.09   
8/16/2017  6:00 AM  TX-ER-4  Stephenville 2.6 NNW 4.10  0.08   
8/16/2017  6:00 AM  VA-BD-9  Bedford 3.2 W 1.20  0.25   
8/16/2017  6:00 AM  VA-FR-26  Ferrum 2.7 SW 3.55  0.07   
8/16/2017  6:00 AM  WI-LN-2  Merrill 7.0 W 9.30 0.20 9.30   
8/16/2017  6:00 AM  WY-PK-7  Cody 2.4 WSW 0.42  0.00   
8/16/2017  6:30 AM  IL-WN-2  Roscoe 1.6 ESE 0.52  0.09   
8/16/2017  6:30 AM  IA-LN-7  Central City 6.7 W 4.09  0.05   
8/16/2017  6:30 AM  OH-DR-1  Bradford 2.3 NW 4.83  0.13   
8/16/2017  6:30 AM  PA-CN-13  Boalsburg 0.4 E 5.90  0.15   
8/16/2017  6:30 AM  TX-WT-15  Wichita Falls 7.2 WSW 3.85  0.13   
8/16/2017  6:30 AM  WA-WC-52  Bellingham 2.3 S 1.62  0.12   
8/16/2017  6:30 AM  WY-SH-22  Ranchester 1.3 ESE 4.22  0.04   
8/16/2017  6:56 AM  TN-PT-3  Byrdstown 2.8 SSW 7.91  0.09   
8/16/2017  6:58 AM  WA-SJ-28  Lopez Island 3.9 NNE 1.10  0.10   
8/16/2017  7:00 AM  AZ-PN-50  Saddlebrooke 1.5 SW 2.99  0.21   
8/16/2017  7:00 AM  CA-HM-5  Mckinleyville 7.3 ESE 6.25  0.10   
8/16/2017  7:00 AM  CA-SD-12  Poway 3.2NE 7.43  0.10   
8/16/2017  7:00 AM  CA-SD-132  Descanso 3.7N 7.58  0.16   
8/16/2017  7:00 AM  CA-SN-100  Glen Ellen 1.9 NNW 0.38  0.10   
8/16/2017  7:00 AM  CA-TH-11  Red Bluff 5.1 NNW 6.90  0.19   
8/16/2017  7:00 AM  CO-GN-18  Crested Butte 6.2 N 5.29  0.10   
8/16/2017  7:00 AM  CO-JF-63  Golden 4.8 NW 2.55  0.07   
8/16/2017  7:00 AM  CO-LR-284  FCL 3.0 W 6.82  0.13   
8/16/2017  7:00 AM  CO-LG-6  Sterling 3.7 NNE 7.50  0.10   
8/16/2017  7:00 AM  CO-ME-79  Grand Junction 3.9 WSW 1.65  0.15   
8/16/2017  7:00 AM  FL-MR-66  The Villages 3.7 NNW 5.71  0.12   
8/16/2017  7:00 AM  GA-FY-28  Fayetteville 2.1 NNE 3.98  0.11   
8/16/2017  7:00 AM  IL-CP-1  Homer 2.0 N 4.83  0.13   
8/16/2017  7:00 AM  IL-GY-1  Carbon Hill 3.1 N 5.70  0.18   
8/16/2017  7:00 AM  IL-KN-67  St. Charles 6.0 NW 0.41  0.11   
8/16/2017  7:00 AM  IL-WF-14  El Paso 5.2 NNW 10.33  0.10   
8/16/2017  7:00 AM  IN-AL-5  Huntertown 2.6 ESE 6.33  0.11   
8/16/2017  7:00 AM  IN-BN-53  Zionsville 4.3 NNW 0.50  0.07   
8/16/2017  7:00 AM  IN-HR-5  Milltown 5.7 SSE 7.33  0.13   
8/16/2017  7:00 AM  IN-MR-13  Speedway 6.2 SSW 6.11  0.13   
8/16/2017  7:00 AM  IN-OW-9  Spencer 7.0 S 6.60  0.14